Regional Weather Roundup
Issued by NWS

Home | Current Version | Previous Version | Graphics & Text | Print | Product List | Glossary On
Versions: 1 2 3 4 5 6 7 8 9 10 11 12 13 14 15 16 17 18 19 20 21 22 23 24 25 26 27 28 29 30 31 32 33 34 35 36 37 38 39 40 41 42 43 44 45 46 47 48 49 50
000
ASUS45 KABQ 231001
RWRNM
WEATHER ROUNDUP FOR NEW MEXICO
NATIONAL WEATHER SERVICE ALBUQUERQUE NM
400 AM MDT WED JUL 23 2014

NOTE: "FAIR" MEANS FEW OR NO CLOUDS BELOW 12,000 FEET AGL WITH NO
       SIGNIFICANT WEATHER OR OBSTRUCTIONS TO VISION.

      THIS PRODUCT IS RELEASED AS TWO VERSIONS.  ONE VERSION NEAR
      THE TOP OF THE HOUR CONTAINING PRELIMINARY DATA FROM ALBUQUERQUE
      AND OTHER STATIONS.  A FINAL VERSION WITH ADDITIONAL DATA IS
      ISSUED ABOUT 10 MINUTES AFTER THE HOUR.

NMZ501-503-504-510>518-231100-
NORTHWEST PLATEAU/NORTHCENTRAL MOUNTAINS

CITY           SKY/WX    TMP DP  RH WIND       PRES   REMARKS
FARMINGTON     CLEAR     72  54  53 NE6       30.33S
LOS ALAMOS     CLEAR     66  43  44 CALM      30.51R
SANTA FE       CLEAR     63  50  62 NE6       30.42S
TAOS           CLEAR     52  45  76 N3        30.51S
ANGEL FIRE     FAIR      43  41  93 CALM      30.62S

$$
NMZ402-403-502-505>509-231100-
WESTCENTRAL MOUNTAINS/SOUTHWEST MOUNTAINS

CITY           SKY/WX    TMP DP  RH WIND       PRES   REMARKS
GALLUP         PTCLDY    62  46  55 CALM      30.40S
GRANTS         PTCLDY    55  51  85 N5        30.43S

$$
NMZ407-409-411-412-231100-
SOUTHERN DESERTS

CITY           SKY/WX    TMP DP  RH WIND       PRES   REMARKS
LORDSBURG      FAIR      70  59  68 E10       30.23S
DEMING         MOCLDY    69  66  90 N3        30.25F
LAS CRUCES     CLOUDY    73  63  72 NW7       30.26F
HOLLOMAN AFB   MOCLDY    73  62  68 NE7       30.21F
T OR C         PTCLDY    72  59  63 SW5       30.27S

$$
NMZ519>523-231100-
CENTRAL VALLEYS/CENTRAL HIGHLANDS

CITY           SKY/WX    TMP DP  RH WIND       PRES   REMARKS
ALBUQUERQUE    CLEAR     71  55  56 NW5       30.35R
DOUBLE EAGLE   CLEAR     63  52  67 N7        30.38R
MORIARTY ARPT  FAIR      56  53  88 N5        30.43S
CLINES CORNERS CLEAR     61  53  75 E7        30.47S
BELEN          FAIR      68  55  61 N5        30.32F
SOCORRO        FAIR      71  50  47 NW7       30.30S

$$
NMZ524>526-539-540-231100-
SOUTHCENTRAL MOUNTAINS

CITY           SKY/WX    TMP DP  RH WIND       PRES   REMARKS
RUIDOSO        NOT AVBL

$$
NMZ527>531-231100-
NORTHEAST HIGHLANDS/NORTHEAST PLAINS

CITY           SKY/WX    TMP DP  RH WIND       PRES   REMARKS
LAS VEGAS      CLEAR     59  51  75 CALM      30.48S
RATON          CLEAR     60  52  74 NE3       30.43S
CLAYTON        CLEAR     71  60  68 W8        30.33S

$$
NMZ532>537-231100-
EASTCENTRAL PLAINS

CITY           SKY/WX    TMP DP  RH WIND       PRES   REMARKS
TUCUMCARI      MOCLDY    73  63  70 CALM      30.28R
CANNON AFB     MOCLDY    69  66  91 E5        30.30R
CLOVIS AIRPORT NOT AVBL

$$
NMZ028-029-538-231100-
SOUTHEAST PLAINS

CITY           SKY/WX    TMP DP  RH WIND       PRES   REMARKS
ROSWELL        MOCLDY    77  63  61 N3        30.22S
ARTESIA        PTCLDY    77  57  50 E3        30.21S
CARLSBAD       PTCLDY    77  55  46 CALM      30.18R
HOBBS          MOCLDY    72  57  60 NE5       30.24R


$$


USA.gov is the U.S. government's official web portal to all federal, state and local government web resources and services.